Torna al catalogo

SATCOM K2

AttivoMilitareGEO
NORAD 16276·PAYLOAD·🇺🇸 United States

Lanciato Nov 27, 1985 da Cape Canaveral Space Force Station

Loading…

TLE

AggiornatoSource: Space-Track

Epoca: Sep 11, 2026, 20:46 UTC

1 16276U 85109D   26254.86562744  .00000046  00000-0  00000+0 0  9995
2 16276  14.6949 351.7235 0011768 264.8243 112.1990  0.99604596126465

Traccia SATCOM K2 in tempo reale con AllMySat

Download on the App Store